Zurück zum Katalog

DMSP 5D-2 F13 DEB

AktivPO
NORAD 40583·DEBRIS·🇺🇸 United States

Gestartet Mar 24, 1995 von Vandenberg Space Force Base

Loading…

Nächste Überflüge (nächste 24 Stunden)

TLE

AktuellSource: Space-Track

Epoche: Sep 13, 2026, 12:36 UTC

1 40583U 95015ES  26256.52564573  .00008238  00000-0  15144-2 0  9996
2 40583  98.5956 356.7366 0024872 166.0143 194.1753 14.65718255599630

Verfolge DMSP 5D-2 F13 DEB in Echtzeit mit AllMySat

Download on the App Store